• In Uzbekistan
  • List of Countries
  • For 7 days
  • Water Temperature
  • Satellite Maps
  • Weather Map
  • Weather Widgets
  • user-avatar
    Login

    Hourly Weather Zuwara

    Today, 20 November, Tuesday

    Time Temperature Precipitation Wind Pressure Humidity
    00:00 +23°C° 0 mm 7 mps 756 mmHg 29%
    01:00 +23°C° 0 mm 8 mps 756 mmHg 29%
    02:00 +23°C° 0 mm 8 mps 756 mmHg 31%
    03:00 +23°C° 0 mm 8 mps 756 mmHg 33%
    04:00 +22°C° 0 mm 8 mps 756 mmHg 35%
    05:00 +22°C° 0 mm 8 mps 756 mmHg 40%
    06:00 +22°C° 0 mm 7 mps 756 mmHg 45%
    07:00 +22°C° 0 mm 7 mps 757 mmHg 50%
    08:00 +23°C° 0 mm 7 mps 757 mmHg 47%
    09:00 +24°C° 0 mm 8 mps 758 mmHg 44%
    10:00 +24°C° 0 mm 8 mps 758 mmHg 41%
    11:00 +26°C° 0 mm 9 mps 758 mmHg 40%
    12:00 +26°C° 0 mm 9 mps 758 mmHg 40%
    13:00 +26°C° 0 mm 10 mps 758 mmHg 39%
    14:00 +26°C° 0 mm 10 mps 759 mmHg 39%
    15:00 +24°C° 0 mm 9 mps 759 mmHg 39%
    16:00 +24°C° 0 mm 9 mps 759 mmHg 40%
    17:00 +23°C° 0 mm 8 mps 759 mmHg 41%
    18:00 +23°C° 0 mm 7 mps 760 mmHg 43%
    19:00 +22°C° 0 mm 6 mps 760 mmHg 44%
    20:00 +21°C° 0 mm 6 mps 761 mmHg 45%
    21:00 +21°C° 0 mm 6 mps 761 mmHg 45%
    22:00 +21°C° 0 mm 6 mps 762 mmHg 46%
    23:00 +20°C° 0 mm 6 mps 762 mmHg 47%

    Tomorrow, 21 November, Wednesday

    Time Temperature Precipitation Wind Pressure Humidity
    00:00 +20°C° 0 mm 6 mps 762 mmHg 47%
    01:00 +20°C° 0 mm 5 mps 762 mmHg 48%
    02:00 +19°C° 0 mm 5 mps 762 mmHg 48%
    03:00 +19°C° 0 mm 4 mps 762 mmHg 49%
    04:00 +19°C° 0 mm 4 mps 763 mmHg 49%
    05:00 +18°C° 0 mm 4 mps 763 mmHg 49%
    06:00 +18°C° 0 mm 4 mps 763 mmHg 49%
    07:00 +18°C° 0 mm 3 mps 763 mmHg 50%
    08:00 +19°C° 0 mm 3 mps 764 mmHg 45%
    09:00 +20°C° 0 mm 4 mps 764 mmHg 41%
    10:00 +22°C° 0 mm 4 mps 765 mmHg 37%
    11:00 +23°C° 0 mm 4 mps 765 mmHg 34%
    12:00 +25°C° 0 mm 4 mps 764 mmHg 31%
    13:00 +26°C° 0 mm 4 mps 764 mmHg 28%
    14:00 +26°C° 0 mm 3 mps 764 mmHg 28%
    15:00 +26°C° 0 mm 3 mps 764 mmHg 28%
    16:00 +26°C° 0 mm 2 mps 764 mmHg 28%
    17:00 +25°C° 0 mm 1 mps 764 mmHg 31%
    18:00 +23°C° 0 mm 1 mps 765 mmHg 34%
    19:00 +20°C° 0 mm 0 mps 765 mmHg 37%
    20:00 +22°C° 0 mm 1 mps 765 mmHg 37%
    21:00 +22°C° 0 mm 1 mps 766 mmHg 36%
    22:00 +21°C° 0 mm 2 mps 766 mmHg 36%
    23:00 +20°C° 0 mm 2 mps 766 mmHg 37%

    Day after tomorrow, 22 November, Thursday

    Time Temperature Precipitation Wind Pressure Humidity
    00:00 +20°C° 0 mm 2 mps 766 mmHg 39%
    01:00 +19°C° 0 mm 2 mps 766 mmHg 40%
    02:00 +19°C° 0 mm 2 mps 766 mmHg 41%
    03:00 +19°C° 0 mm 2 mps 766 mmHg 41%
    04:00 +18°C° 0 mm 2 mps 766 mmHg 42%
    05:00 +18°C° 0 mm 2 mps 766 mmHg 43%
    06:00 +19°C° 0 mm 1 mps 766 mmHg 44%
    07:00 +18°C° 0 mm 1 mps 766 mmHg 45%
    08:00 +20°C° 0 mm 1 mps 767 mmHg 41%
    09:00 +21°C° 0 mm 1 mps 767 mmHg 36%
    10:00 +23°C° 0 mm 1 mps 767 mmHg 31%
    11:00 +24°C° 0 mm 1 mps 767 mmHg 30%
    12:00 +25°C° 0 mm 1 mps 766 mmHg 29%
    13:00 +25°C° 0 mm 1 mps 766 mmHg 27%
    14:00 +25°C° 0 mm 1 mps 766 mmHg 28%
    15:00 +25°C° 0 mm 1 mps 766 mmHg 28%
    16:00 +25°C° 0 mm 1 mps 766 mmHg 29%
    17:00 +24°C° 0 mm 1 mps 766 mmHg 31%
    18:00 +24°C° 0 mm 2 mps 766 mmHg 34%
    19:00 +23°C° 0 mm 2 mps 766 mmHg 36%
    20:00 +21°C° 0 mm 2 mps 766 mmHg 39%
    21:00 +21°C° 0 mm 3 mps 767 mmHg 41%
    22:00 +20°C° 0 mm 3 mps 767 mmHg 44%
    23:00 +20°C° 0 mm 3 mps 767 mmHg 45%

    23 November, Friday

    Time Temperature Precipitation Wind Pressure Humidity
    00:00 +20°C° 0 mm 3 mps 767 mmHg 46%
    01:00 +19°C° 0 mm 3 mps 767 mmHg 47%
    02:00 +19°C° 0 mm 3 mps 766 mmHg 46%
    03:00 +19°C° 0 mm 3 mps 766 mmHg 46%
    04:00 +19°C° 0 mm 3 mps 766 mmHg 45%
    05:00 +18°C° 0 mm 3 mps 766 mmHg 44%
    06:00 +18°C° 0 mm 3 mps 767 mmHg 43%
    07:00 +18°C° 0 mm 2 mps 767 mmHg 42%
    08:00 +20°C° 0 mm 2 mps 767 mmHg 39%
    09:00 +21°C° 0 mm 2 mps 767 mmHg 35%
    10:00 +23°C° 0 mm 2 mps 768 mmHg 31%
    11:00 +24°C° 0 mm 2 mps 767 mmHg 31%
    12:00 +25°C° 0 mm 2 mps 767 mmHg 30%
    13:00 +26°C° 0 mm 2 mps 766 mmHg 30%
    14:00 +26°C° 0 mm 2 mps 766 mmHg 30%
    15:00 +26°C° 0 mm 3 mps 766 mmHg 31%
    16:00 +26°C° 0 mm 3 mps 766 mmHg 32%
    17:00 +25°C° 0 mm 4 mps 766 mmHg 35%
    18:00 +25°C° 0 mm 4 mps 766 mmHg 38%
    19:00 +23°C° 0 mm 5 mps 766 mmHg 42%
    20:00 +22°C° 0 mm 5 mps 766 mmHg 42%
    21:00 +22°C° 0 mm 4 mps 766 mmHg 43%
    22:00 +22°C° 0 mm 4 mps 766 mmHg 43%
    23:00 +22°C° 0 mm 4 mps 766 mmHg 42%

    24 November, Saturday

    Time Temperature Precipitation Wind Pressure Humidity
    00:00 +21°C° 0 mm 4 mps 766 mmHg 41%
    01:00 +21°C° 0 mm 4 mps 766 mmHg 40%
    02:00 +21°C° 0 mm 4 mps 765 mmHg 41%
    03:00 +21°C° 0 mm 4 mps 765 mmHg 41%
    04:00 +20°C° 0 mm 4 mps 765 mmHg 41%
    05:00 +20°C° 0 mm 4 mps 765 mmHg 41%
    06:00 +20°C° 0 mm 4 mps 766 mmHg 41%
    07:00 +19°C° 0 mm 3 mps 766 mmHg 41%
    08:00 +21°C° 0 mm 4 mps 766 mmHg 39%
    09:00 +22°C° 0 mm 4 mps 767 mmHg 36%
    10:00 +23°C° 0 mm 4 mps 767 mmHg 33%
    11:00 +26°C° 0 mm 4 mps 766 mmHg 31%
    12:00 +27°C° 0 mm 3 mps 766 mmHg 29%
    13:00 +28°C° 0 mm 3 mps 765 mmHg 26%
    14:00 +28°C° 0 mm 3 mps 765 mmHg 27%
    15:00 +28°C° 0 mm 2 mps 765 mmHg 27%
    16:00 +28°C° 0 mm 2 mps 765 mmHg 27%
    17:00 +28°C° 0 mm 2 mps 765 mmHg 28%
    18:00 +27°C° 0 mm 3 mps 765 mmHg 29%
    19:00 +26°C° 0 mm 3 mps 765 mmHg 30%
    20:00 +26°C° 0 mm 3 mps 765 mmHg 31%
    21:00 +25°C° 0 mm 4 mps 765 mmHg 32%
    22:00 +25°C° 0 mm 4 mps 765 mmHg 33%
    23:00 +23°C° 0 mm 4 mps 765 mmHg 33%

    25 November, Sunday

    Time Temperature Precipitation Wind Pressure Humidity
    00:00 +23°C° 0 mm 4 mps 765 mmHg 33%
    01:00 +23°C° 0 mm 4 mps 764 mmHg 33%
    02:00 +23°C° 0 mm 4 mps 764 mmHg 33%
    03:00 +23°C° 0 mm 4 mps 764 mmHg 34%
    04:00 +22°C° 0 mm 4 mps 764 mmHg 34%
    05:00 +22°C° 0 mm 4 mps 764 mmHg 34%
    06:00 +22°C° 0 mm 4 mps 764 mmHg 34%
    07:00 +22°C° 0 mm 4 mps 764 mmHg 34%
    08:00 +23°C° 0 mm 4 mps 764 mmHg 32%
    09:00 +25°C° 0 mm 4 mps 765 mmHg 30%
    10:00 +26°C° 0 mm 4 mps 765 mmHg 28%
    11:00 +26°C° 0 mm 4 mps 765 mmHg 29%
    12:00 +26°C° 0 mm 4 mps 764 mmHg 29%
    13:00 +26°C° 0 mm 4 mps 764 mmHg 30%
    14:00 +26°C° 0.1 mm 4 mps 763 mmHg 35%
    15:00 +25°C° 0.1 mm 3 mps 763 mmHg 40%
    16:00 +24°C° 0.1 mm 2 mps 763 mmHg 44%
    17:00 +24°C° 0 mm 3 mps 763 mmHg 44%
    18:00 +24°C° 0 mm 3 mps 763 mmHg 44%
    19:00 +23°C° 0 mm 4 mps 763 mmHg 44%
    20:00 +22°C° 0 mm 4 mps 763 mmHg 45%
    21:00 +22°C° 0 mm 3 mps 763 mmHg 45%
    22:00 +22°C° 0 mm 3 mps 763 mmHg 45%
    23:00 +22°C° 0 mm 3 mps 763 mmHg 45%
    Show more